Location: S�tio Afonso Gruber
(26.1760°S, 49.5250°W)
Time: 00:29:40
(UTC+00:00)

Intelsat 5-3 Rocket - Pass Details

Date: 04 October 2020
Orbit: 281 x 6111 km, 23.6° (Epoch: 22 October)

Event Time Altitude Azimuth Distance (km) Brightness Sun altitude
Exits shadow 07:24:25 20° 268° (W) 7,022 7.3 -20.6°
Maximum altitude 07:51:54 58° 333° (NNW) 6,566 7.5 -14.6°
Drops below altitude 10° 08:28:48 10° 45° (NE) 8,072 8.8 -6.4°
Sets 08:34:17 0° 50° (NE) 8,488 9.0 -5.2°
